Regional Weather Roundup
Issued by NWS

Home | Current Version | Previous Version | Graphics & Text | Print | Product List | Glossary On
Versions: 1 2 3 4 5 6 7 8 9 10 11 12 13 14 15 16 17 18 19 20 21 22 23 24 25 26 27 28 29 30 31 32 33 34 35 36 37 38 39 40 41 42 43 44 45 46 47 48 49 50
000
ASUS45 KBOU 230907
RWRCO

WEATHER ROUNDUP FOR COLORADO
NATIONAL WEATHER SERVICE DENVER/BOULDER CO
200 AM MST SUN NOV 23 2014

NOTE: "FAIR" INDICATES FEW OR NO CLOUDS BELOW 12000 FEET WITH NO
SIGNIFICANT WEATHER AND/OR OBSTRUCTIONS TO VISIBILITY.

COZ001>005-013-030-031-231000-
...NORTHWEST COLORADO...

CITY           SKY/WX    TMP DP  RH WIND       PRES   REMARKS
CRAIG          CLOUDY    31  28  89 W5        29.81R WCI  26
HAYDEN         CLOUDY    28  25  86 W20G26    29.78S WCI  15
MEEKER         CLOUDY    31  29  92 SW5       29.81R WCI  26
MOUNT WERNER   NOT AVBL
STEAMBOAT SPGS CLOUDY    29  28  94 SW8       29.76S WCI  21
WALDEN         CLOUDY    28  21  74 W7        29.72R WCI  21
$$

COZ006>008-011-231000-
...WEST CENTRAL VALLEYS...

CITY           SKY/WX    TMP DP  RH WIND       PRES   REMARKS
GRAND JUNCTION CLOUDY    32  32 100 W7        29.84R WCI  26
MONTROSE       CLOUDY    34  33  96 SE10      29.82F WCI  26
EAGLE          CLOUDY    34  32  93 CALM      29.77F
RIFLE          CLOUDY    35  32  88 SW6       29.80R WCI  30
DELTA          CLOUDY    37  35  90 W7        29.80R
NUCLA          CLOUDY    37  32  81 NW7       29.88R
$$

COZ017>023-064>068-231000-
...SOUTHWEST COLORADO...

CITY           SKY/WX    TMP DP  RH WIND       PRES   REMARKS
DURANGO        CLOUDY    31  29  92 S3        29.79F
CORTEZ         CLOUDY    39  30  70 N21G29    29.83S
PAGOSA SPRINGS CLOUDY    32  31  96 CALM      29.80F
TELLURIDE      LGT SNOW  28  27  95 W7        29.83F VSB 3/4 WCI  21
WOLF CREEK PAS HVY SNOW  18  18 100 SW23G36   29.78F VSB 1/4 WCI   0
$$

COZ009-010-012-014-032>034-037-058>063-231000-
...CENTRAL COLORADO...

CITY           SKY/WX    TMP DP  RH WIND       PRES   REMARKS
ASPEN          LGT SNOW  29  26  89 NW13G28   29.75R FOG     WCI  19
BUENA VISTA    CLOUDY    32  28  86 W6        29.68S WCI  26
COPPER MTN     CLOUDY    19  14  79 W25G38    29.73R WCI   2
BERTHOUD PASS  HVY SNOW  10   7  85 NW30G41   29.71R VSB 1/4 WCI -12
COTTONWOOD PAS CLOUDY    32  27  80 NW7       29.69F WCI  26
GUNNISON       CLOUDY    30  25  80 CALM      29.75F
KREMMLING      CLOUDY    30  23  74 NE6       29.76R WCI  24
LEADVILLE      HVY SNOW  23  22  96 NW18G28   29.71R VSB 1/4 WCI   9
MONARCH PASS   CLOUDY    19  18  93 W44       29.81R WCI  -2
SALIDA         CLOUDY    36  29  76 S5        29.76S
SUNLIGHT       CLOUDY    23  21  93 W7        29.78S FOG     WCI  15
WILKERSON PASS PTCLDY    21  18  86 W10G20    29.71R WCI  10
$$

COZ069>075-231000-
...SAN LUIS VALLEY/SANGRE DE CRISTO MOUNTAINS...

CITY           SKY/WX    TMP DP  RH WIND       PRES   REMARKS
ALAMOSA        PTCLDY    19  14  81 S6        29.71F WCI  11
LA VETA PASS   PTCLDY    27  18  69 SW18G41   29.63F WCI  13
SAGUACHE       LGT SNOW  30  30 100 NW3       29.73S VSB 1
$$

COZ035-036-038>040-231000-
...NORTHERN COLORADO FRONT RANGE...

CITY           SKY/WX    TMP DP  RH WIND       PRES   REMARKS
DENVER INTL AP MOCLDY    41  26  55 N14       29.57R
DMNS CITY PARK   N/A     44  25  46 N6        29.59R
AURORA         CLOUDY    40  26  58 N6        29.61R
FRONT RANGE AP MOCLDY    37  30  75 E5        29.60R
ERIE MUNI ARPT CLOUDY    38  28  66 CALM      29.58R
BOULDER MUN AP CLOUDY    43  28  56 E3        29.58R
CENTENNIAL     CLOUDY    43  25  49 NE9       29.60R
BROOMFIELD     MOCLDY    43  27  52 NE7       29.59R
FORT COLLINS   MOCLDY    43  25  49 N20G26    29.61R
LONGMONT       MOCLDY    41  29  63 CALM      29.59R
$$

COZ041-046-047-076>085-087-088-231000-
...PIKES PEAK/PALMER DIVIDE AND SOUTHERN FOOTHILLS...

CITY           SKY/WX    TMP DP  RH WIND       PRES   REMARKS
COLO. SPRINGS  MOCLDY    37  22  54 NE7       29.57R
A. F. ACADEMY  PTCLDY    41  19  41 N13       29.57R
ELLICOTT       NOT AVBL
FALCON         NOT AVBL
FORT CARSON    PTCLDY    44  21  40 SW10      29.56R
LIMON          CLOUDY    42  20  41 N13       29.57R
MONUMENT HILL  MOCLDY    32  23  69 N6        29.60R WCI  26
TRINIDAD       PTCLDY    39  23  52 SW14      29.56F
$$

COZ042>045-048>051-090-091-231000-
...NORTHEAST COLORADO...

CITY           SKY/WX    TMP DP  RH WIND       PRES   REMARKS
GREELEY ARPT   CLOUDY    43  25  49 N29G38    29.60R
AKRON          CLOUDY    45  27  49 N28G33    29.61R
BURLINGTON     CLOUDY    50  20  30 NW18G25   29.51R
WRAY           CLOUDY    49  28  44 NW15G24   29.58R
STERLING       CLOUDY    48  32  53 N18G28    29.61R
HOLYOKE        CLOUDY    48  32  53 NW16      29.59R
FORT MORGAN    CLOUDY    44  24  44 NW32G39   29.64R
$$

COZ086-089-092>099-231000-
...SOUTHEAST COLORADO...

CITY           SKY/WX    TMP DP  RH WIND       PRES   REMARKS
PUEBLO         PTCLDY    45  26  47 N9        29.53F
LA JUNTA       PTCLDY    46  29  51 W12       29.51R
LAMAR          PTCLDY    41  29  62 W13       29.46R
SPRINGFIELD      N/A     42  23  46 NW13      29.48S
$$


USA.gov is the U.S. government's official web portal to all federal, state and local government web resources and services.